Notices

What's New in latest Release from April 7th, 2021:

- Updated Glossary, including Speed of Maximum Gust, and Total Hourly Precipitation

- Updated national and regional climate services offices contacts and prices information

- Addition of station inventory lists for 1981-2010, 1971-2000, and 1961-1990 Normals.

If you haven't already, please take our survey and provide feedback about our website: https://eccc.sondage-survey.ca/f/LanguageSelection.aspx?s=442ca660-fcf1-47c0-95a9-59707d6fd709

Hourly Data Report for January 03, 2021

SHEARWATER RCS
NOVA SCOTIA
Current Station Operator: ECCC - MSC

44°37'47.000" N
63°30'48.000" W
24.00 m
8205092
71264
AAW

Download Data

Hourly Data (January 2021)
Hourly Data Report for January 3, 2021
TIME
LST
Temp Definition
°C
Dew Point Definition
°C
Rel Hum Definition
%
Precip. Amount Definition
mm

Wind Dir Definition
10's deg

Wind Spd Definition
km/h
Visibility Definition
km
Stn Press Definition
kPa
Hmdx Definition


Wind Chill Definition


Weather Definition


00:00 -0.3 -1.1 95 0.3 33 33   100.12   -7 LegendNANA
01:00 -0.1 -1.5 90 0.0 33 32   100.30   -7 LegendNANA
02:00 0.0 -2.1 86 0.0 33 36   100.49   -7 LegendNANA
03:00 0.0 -2.2 85 0.0 33 30   100.70   -6 LegendNANA
04:00 0.0 -2.1 86 0.0 33 23   100.83   -6 LegendNANA
05:00 -0.2 -2.6 84 0.0 33 24   101.00   -6 LegendNANA
06:00 -0.2 -2.5 84 0.0 34 17   101.17   -5 LegendNANA
07:00 -0.6 -2.7 85 0.0 34 19   101.34   -6 LegendNANA
08:00 -0.8 -4.0 79 0.0 35 26   101.50   -7 LegendNANA
09:00 -0.9 -3.7 82 0.0 35 20   101.60   -6 LegendNANA
10:00 -0.7 -3.6 81 0.0 1 22   101.54   -6 LegendNANA
11:00 -0.9 -4.0 79 0.0 36 23   101.57   -7 LegendNANA
12:00 -0.7 -3.8 80 0.0 1 18   101.59   -6 LegendNANA
13:00 -0.7 -3.7 80 0.0 36 14   101.61   -5 LegendNANA
14:00 -0.8 -3.9 79 0.0 35 13   101.73   -5 LegendNANA
15:00 -0.6 -3.5 81 0.0 36 12   101.72   -5 LegendNANA
16:00 -0.9 -3.8 81 0.0 35 15   101.71   -6 LegendNANA
17:00 -1.2 -3.7 83 0.0 1 14   101.69   -6 LegendNANA
18:00 -1.5 -3.8 84 0.0 36 11   101.65   -5 LegendNANA
19:00 -1.5 -3.9 84 0.0 1 9   101.69   -5 LegendNANA
20:00 -1.6 -4.1 84 0.0 3 11   101.72   -5 LegendNANA
21:00 -1.7 -3.9 85 0.0 2 8   101.74   -5 LegendNANA
22:00 -1.7 -3.8 86 0.0 2 12   101.66   -6 LegendNANA
23:00 -1.6 -3.5 87 0.0 3 11   101.60   -5 LegendNANA

Notes on Data Quality.

Legend

  • E = Estimated
  • M = Missing
  • NA = Not Available*
  • [empty] = Indicates an unobserved value
Date modified: